Location: Winthrop
(48.4780°N, 120.1850°W)
Time: 21:35:59
(UTC-08:00)

A-11 Canister half - All Passes

Search period start: 05 February 2023 00:00
Search period end: 15 February 2023 00:00
Orbit: 1525 x 1683 km, 47.3° (Epoch: 05 February)

Date Brightness Start Highest point End Pass type
(mag) Time Alt. Az. Time Alt. Az. Time Alt. Az.
05 Feb - 04:02:06 10° SSW 04:09:44 30° SE 04:17:22 10° E visible
05 Feb - 06:04:21 10° SW 06:13:30 66° SSE 06:22:47 10° ENE visible
05 Feb - 08:08:56 10° W 08:18:18 85° S 08:27:53 10° E daylight
05 Feb - 10:13:51 10° WNW 10:23:05 63° SSW 10:32:34 10° SE daylight
05 Feb - 12:19:17 10° W 12:26:50 28° SW 12:34:36 10° S daylight
06 Feb - 03:40:38 10° S 03:48:06 28° SE 03:55:35 10° E visible
06 Feb - 05:42:42 10° SW 05:51:50 65° SSE 06:01:05 10° ENE visible
06 Feb - 07:47:15 10° W 07:56:36 85° S 08:06:09 10° E daylight
06 Feb - 09:52:10 10° WNW 10:01:24 65° SSW 10:10:54 10° SE daylight
06 Feb - 11:57:32 10° W 12:05:13 29° SW 12:13:06 10° S daylight
07 Feb - 03:19:11 10° S 03:26:30 27° SE 03:33:49 10° E visible
07 Feb - 05:21:04 10° SW 05:30:10 63° SSE 05:39:22 10° ENE visible
07 Feb - 07:25:34 10° W 07:34:54 85° S 07:44:26 10° E daylight
07 Feb - 09:30:29 10° WNW 09:39:43 66° SSW 09:49:12 10° SE daylight
07 Feb - 11:35:47 10° W 11:43:36 30° SW 11:51:36 10° SSE daylight
08 Feb - 02:57:45 10° S 03:04:54 26° SE 03:12:02 10° E visible
08 Feb - 04:59:25 10° SW 05:08:30 61° SSE 05:17:39 10° ENE visible
08 Feb - 07:03:53 10° W 07:13:12 84° S 07:22:42 10° E daylight
08 Feb - 09:08:48 10° WNW 09:18:02 68° SSW 09:27:31 10° ESE daylight
08 Feb - 11:14:02 10° W 11:21:58 32° SW 11:30:05 10° SSE daylight
09 Feb - 02:36:20 10° S 02:43:17 24° SE 02:50:14 10° E visible
09 Feb - 04:37:47 10° SW 04:46:50 60° SSE 04:55:57 10° ENE visible
09 Feb - 06:42:11 10° W 06:51:30 84° S 07:01:00 10° E visible
09 Feb - 08:47:07 10° W 08:56:22 69° SSW 09:05:50 10° ESE daylight
09 Feb - 10:52:18 10° W 11:00:20 33° SW 11:08:34 10° SSE daylight
10 Feb - 02:14:55 10° S 02:21:41 23° SE 02:28:26 10° E visible
10 Feb - 04:16:10 10° SW 04:25:11 58° SSE 04:34:14 10° ENE visible
10 Feb - 06:20:29 10° W 06:29:48 84° S 06:39:16 10° E visible
10 Feb - 08:25:25 10° W 08:34:41 71° SSW 08:44:08 10° ESE daylight
10 Feb - 10:30:34 10° WNW 10:38:42 35° SW 10:47:02 10° SSE daylight
11 Feb - 01:53:32 10° S 02:00:05 22° SE 02:06:36 10° E visible
11 Feb - 03:54:32 10° SW 04:03:31 56° SSE 04:12:32 10° ENE visible
11 Feb - 05:58:48 10° W 06:08:07 83° S 06:17:33 10° E visible
11 Feb - 08:03:44 10° W 08:13:00 72° SSW 08:22:27 10° ESE daylight
11 Feb - 10:08:50 10° WNW 10:17:04 36° SW 10:25:28 10° SSE daylight
12 Feb - 01:32:11 10° S 01:38:30 21° SE 01:44:46 10° E visible
12 Feb - 03:32:54 10° SW 03:41:52 54° SSE 03:50:50 10° ENE visible
12 Feb - 05:37:06 10° W 05:46:25 83° S 05:55:51 10° E visible
12 Feb - 07:42:03 10° W 07:51:18 73° SSW 08:00:46 10° ESE daylight
12 Feb - 09:47:07 10° WNW 09:55:26 37° SW 10:03:55 10° SSE daylight
13 Feb - 01:10:50 10° S 01:16:53 19° SE 01:22:54 10° E visible
13 Feb - 03:11:18 10° SW 03:20:13 53° SSE 03:29:07 10° ENE visible
13 Feb - 05:15:25 10° WSW 05:24:43 82° S 05:34:07 10° E visible
13 Feb - 07:20:21 10° W 07:29:38 75° SSW 07:39:03 10° ESE daylight
13 Feb - 09:25:24 10° WNW 09:33:47 39° SW 09:42:22 10° SSE daylight
13 Feb - 11:34:42 10° WSW 11:36:40 11° WSW 11:38:38 10° SW daylight
14 Feb - 00:49:31 10° SSE 00:55:18 18° SE 01:01:02 10° E visible
14 Feb - 02:49:40 10° SW 02:58:34 51° SSE 03:07:25 10° ENE visible
14 Feb - 04:53:43 10° WSW 05:03:02 82° S 05:12:25 10° E visible
14 Feb - 06:58:40 10° W 07:07:57 76° SSW 07:17:22 10° ESE daylight
14 Feb - 09:03:41 10° WNW 09:12:09 41° SW 09:20:47 10° SSE daylight
14 Feb - 11:12:10 10° WSW 11:15:04 12° WSW 11:18:00 10° SW daylight
